Date String (YYYY-MM-DD hh:mm:ss) UTC,Instrument flags,absolute air pressure of the measurement (hPa),sample flow rate (lpm),inlet stack bypass flow (lpm),air temperature of the measurement (°C),ambient temperature measured by the external sensor (°C),aerosol sample conditioner tube jacket temperature (°C),OPC LED temperature (°C),internal box temperature (°C),relative humidity of the measurement (%),span deviation,mass concentration of particles derived from Lorenz-Mie calculation of OPC scattering (μg/m³),mass concentration of particles derived from Lorenz-Mie calculation of OPC scattering (μg/m³),mass concentration of particles derived from Lorenz-Mie calculation of OPC scattering (μg/m³)
DateTimeUTC,F1_M11,P_M11,Q1_M11,Q2_M11,T1_M11,T2_M11,T3_M11,T4_M11,T5_M11,U1_M11,ZSPAN_M11,X2_M11,X0_M11,X1_M11
2024-05-10 10:00:00,SystemResetWarning,0836.8,4.99,000.00,026.1,025.4,000.0,034.4,027.8,022.1,0000.0,0003.08,0006.43,0002.56
2024-05-10 10:01:00,SystemResetWarning,0836.8,4.99,000.00,026.1,025.4,000.0,034.4,027.8,022.2,0000.0,0003.11,0006.41,0002.61
2024-05-10 10:02:00,SystemResetWarning,0836.8,5.00,000.00,026.1,025.4,000.0,034.4,027.8,022.3,0000.0,0003.13,0006.22,0002.66
2024-05-10 10:03:00,SystemResetWarning,0836.8,5.00,000.00,026.1,025.4,000.0,034.4,027.8,022.2,0000.0,0003.15,0005.85,0002.70
2024-05-10 10:04:00,SystemResetWarning,0836.7,5.01,000.00,026.1,025.4,000.0,034.4,027.8,022.2,0000.0,0003.18,0005.96,0002.72
2024-05-10 10:05:00,SystemResetWarning,0836.7,5.00,000.00,026.1,025.4,000.0,034.4,027.8,022.2,0000.0,0003.23,0006.17,0002.75
2024-05-10 10:06:00,SystemResetWarning,0836.7,5.00,000.00,026.1,025.4,000.0,034.4,027.8,022.2,0000.0,0003.25,0006.26,0002.77
2024-05-10 10:07:00,SystemResetWarning,0836.7,4.99,000.00,026.1,025.4,000.0,034.4,027.8,021.8,0000.0,0003.27,0006.34,0002.79
2024-05-10 10:08:00,SystemResetWarning,0836.7,5.00,000.00,026.1,025.4,000.0,034.4,027.8,021.5,0000.0,0003.24,0006.20,0002.78
2024-05-10 10:09:00,SystemResetWarning,0836.8,5.00,000.00,026.1,025.4,000.0,034.4,027.8,021.5,0000.0,0003.24,0005.77,0002.78
2024-05-10 10:10:00,SystemResetWarning,0836.8,5.00,000.00,026.1,025.4,000.0,034.4,027.8,021.5,0000.0,0003.23,0005.63,0002.80
2024-05-10 10:11:00,SystemResetWarning,0836.8,5.00,000.00,026.1,025.4,000.0,034.4,027.8,021.6,0000.0,0003.21,0004.49,0002.80
2024-05-10 10:12:00,SystemResetWarning,0836.8,5.00,000.00,026.1,025.4,000.0,034.4,027.8,021.5,0000.0,0003.23,0004.63,0002.81
2024-05-10 10:13:00,SystemResetWarning,0836.8,5.00,000.00,026.1,025.4,000.0,034.4,027.8,021.5,0000.0,0003.23,0005.33,0002.82
2024-05-10 10:14:00,SystemResetWarning,0836.8,4.99,000.00,026.1,025.4,000.0,034.3,027.8,021.6,0000.0,0003.27,0005.70,0002.83
2024-05-10 10:15:00,SystemResetWarning,0836.8,4.99,000.00,026.1,025.4,000.0,034.3,027.8,021.6,0000.0,0003.27,0005.66,0002.84
2024-05-10 10:16:00,SystemResetWarning,0836.7,5.00,000.00,026.1,025.4,000.0,034.4,027.8,021.7,0000.0,0003.26,0005.59,0002.85
2024-05-10 10:17:00,SystemResetWarning,0836.7,5.01,000.00,026.1,025.4,000.0,034.4,027.8,021.9,0000.0,0003.27,0005.76,0002.85
2024-05-10 10:18:00,SystemResetWarning,0836.7,5.01,000.00,026.1,025.4,000.0,034.4,027.8,022.0,0000.0,0003.26,0006.11,0002.85
2024-05-10 10:19:00,SystemResetWarning,0836.7,4.98,000.00,026.1,025.4,000.0,034.4,027.8,021.7,0000.0,0003.28,0006.71,0002.87
2024-05-10 10:20:00,SystemResetWarning,0836.7,5.00,000.00,026.1,025.4,000.0,034.4,027.8,021.6,0000.0,0003.29,0006.72,0002.90
2024-05-10 10:21:00,SystemResetWarning,0836.7,5.02,000.00,026.1,025.4,000.0,034.4,027.8,021.7,0000.0,0003.29,0006.69,0002.92
2024-05-10 10:22:00,SystemResetWarning,0836.8,5.00,000.00,026.1,025.4,000.0,034.4,027.8,021.7,0000.0,0003.34,0006.86,0002.95
2024-05-10 10:23:00,SystemResetWarning,0836.8,5.00,000.00,026.1,025.4,000.0,034.4,027.8,021.7,0000.0,0003.34,0006.90,0002.97
2024-05-10 10:24:00,SystemResetWarning,0836.7,5.00,000.00,026.1,025.4,000.0,034.4,027.8,021.8,0000.0,0003.32,0006.15,0002.99
2024-05-10 10:25:00,SystemResetWarning,0836.7,5.00,000.00,026.1,025.4,000.0,034.4,027.8,022.0,0000.0,0003.29,0005.75,0003.01
2024-05-10 10:26:00,SystemResetWarning,0836.7,4.99,000.00,026.1,025.4,000.0,034.4,027.8,021.9,0000.0,0003.32,0005.82,0003.04
2024-05-10 10:27:00,SystemResetWarning,0836.7,5.00,000.00,026.1,025.4,000.0,034.4,027.8,021.9,0000.0,0003.35,0006.00,0003.08
2024-05-10 10:28:00,SystemResetWarning,0836.6,5.00,000.00,026.1,025.4,000.0,034.4,027.8,022.2,0000.0,0003.37,0006.21,0003.11
2024-05-10 10:29:00,SystemResetWarning,0836.7,5.00,000.00,026.1,025.4,000.0,034.4,027.8,022.3,0000.0,0003.39,0005.96,0003.14
2024-05-10 10:30:00,SystemResetWarning,0836.7,5.01,000.00,026.1,025.4,000.0,034.4,027.8,022.2,0000.0,0003.43,0005.37,0003.17
2024-05-10 10:31:00,SystemResetWarning,0836.7,5.02,000.00,026.1,025.4,000.0,034.4,027.8,021.9,0000.0,0003.47,0005.38,0003.20
2024-05-10 10:32:00,SystemResetWarning,0836.7,5.00,000.00,026.1,025.4,000.0,034.4,027.8,021.8,0000.0,0003.56,0005.67,0003.23
2024-05-10 10:33:00,SystemResetWarning,0836.6,4.99,000.00,026.1,025.4,000.0,034.4,027.8,021.6,0000.0,0003.59,0005.66,0003.26
2024-05-10 10:34:00,SystemResetWarning,0836.6,5.00,000.00,026.1,025.4,000.0,034.4,027.8,021.5,0000.0,0003.61,0005.50,0003.28
2024-05-10 10:35:00,SystemResetWarning,0836.7,4.99,000.00,026.1,025.4,000.0,034.4,027.8,021.7,0000.0,0003.65,0005.65,0003.30
2024-05-10 10:36:00,SystemResetWarning,0836.6,5.01,000.00,026.1,025.4,000.0,034.4,027.8,021.8,0000.0,0003.69,0005.81,0003.32
2024-05-10 10:37:00,SystemResetWarning,0836.6,5.01,000.00,026.1,025.4,000.0,034.4,027.8,021.8,0000.0,0003.72,0005.93,0003.33
2024-05-10 10:38:00,SystemResetWarning,0836.6,5.00,000.00,026.1,025.5,000.0,034.4,027.8,021.8,0000.0,0003.73,0005.96,0003.35
2024-05-10 10:39:00,SystemResetWarning,0836.6,5.00,000.00,026.1,025.5,000.0,034.4,027.8,021.7,0000.0,0003.76,0005.75,0003.37
2024-05-10 10:40:00,SystemResetWarning,0836.6,4.99,000.00,026.1,025.5,000.0,034.4,027.8,021.5,0000.0,0003.78,0005.94,0003.38
2024-05-10 10:41:00,SystemResetWarning,0836.6,4.99,000.00,026.1,025.5,000.0,034.4,027.8,021.3,0000.0,0003.76,0005.86,0003.37
2024-05-10 10:42:00,SystemResetWarning,0836.6,5.00,000.00,026.1,025.5,000.0,034.4,027.9,021.2,0000.0,0003.71,0005.71,0003.36
2024-05-10 10:43:00,SystemResetWarning,0836.6,5.00,000.00,026.1,025.5,000.0,034.4,027.8,021.1,0000.0,0003.65,0005.54,0003.34
2024-05-10 10:44:00,SystemResetWarning,0836.7,5.00,000.00,026.1,025.5,000.0,034.4,027.8,020.8,0000.0,0003.60,0005.62,0003.30
2024-05-10 10:45:00,SystemResetWarning,0836.6,5.01,000.00,026.1,025.5,000.0,034.4,027.8,020.8,0000.0,0003.56,0005.53,0003.26
2024-05-10 10:46:00,SystemResetWarning,0836.6,5.01,000.00,026.1,025.5,000.0,034.4,027.8,020.9,0000.0,0003.51,0005.30,0003.24
2024-05-10 10:47:00,SystemResetWarning,0836.6,4.99,000.00,026.1,025.5,000.0,034.4,027.8,020.7,0000.0,0003.46,0005.19,0003.20
2024-05-10 10:48:00,SystemResetWarning,0836.6,4.99,000.00,026.1,025.5,000.0,034.4,027.8,020.7,0000.0,0003.42,0005.18,0003.17
2024-05-10 10:49:00,SystemResetWarning,0836.7,4.99,000.00,026.1,025.5,000.0,034.4,027.8,020.7,0000.0,0003.38,0005.73,0003.13
2024-05-10 10:50:00,SystemResetWarning,0836.7,5.00,000.00,026.1,025.5,000.0,034.4,027.9,020.7,0000.0,0003.34,0005.60,0003.10
2024-05-10 10:51:00,SystemResetWarning,0836.6,5.01,000.00,026.1,025.5,000.0,034.4,027.8,021.0,0000.0,0003.28,0005.40,0003.04
2024-05-10 10:52:00,SystemResetWarning,0836.6,5.00,000.00,026.1,025.5,000.0,034.4,027.9,021.0,0000.0,0003.26,0005.35,0003.01
2024-05-10 10:53:00,SystemResetWarning,0836.6,5.00,000.00,026.1,025.5,000.0,034.4,027.9,021.1,0000.0,0003.28,0005.44,0003.00
2024-05-10 10:54:00,SystemResetWarning,0836.6,5.00,000.00,026.1,025.5,000.0,034.5,027.9,021.0,0000.0,0003.27,0005.48,0002.99
2024-05-10 10:55:00,SystemResetWarning,0836.6,5.00,000.00,026.1,025.5,000.0,034.5,027.9,020.9,0000.0,0003.27,0005.38,0002.98
2024-05-10 10:56:00,SystemResetWarning,0836.6,5.00,000.00,026.1,025.5,000.0,034.4,027.9,020.8,0000.0,0003.26,0005.29,0002.97
2024-05-10 10:57:00,SystemResetWarning,0836.6,5.00,000.00,026.2,025.5,000.0,034.4,027.9,020.8,0000.0,0003.25,0005.29,0002.96
2024-05-10 10:58:00,SystemResetWarning,0836.6,5.00,000.00,026.2,025.5,000.0,034.4,027.9,020.8,0000.0,0003.24,0005.28,0002.95
2024-05-10 10:59:00,SystemResetWarning,0836.6,5.00,000.00,026.2,025.5,000.0,034.4,027.9,020.7,0000.0,0003.21,0005.06,0002.94
